GW6129 Weather Reports


time (UTC)temp
F
wind
direction
speed
knots
gust
knots
rain 1hr
in
rain 24hr
in
rain mn
in
humidity
%
barometer
mb
20260507093503 59 298 1.7 7.0 0.00 0.00 0.00 89 1015.9
20260507093017 59 24 2.6 6.1 0.00 0.00 0.00 90 1015.8
20260507092508 59 331 1.7 4.3 0.00 0.00 0.00 90 1015.8
20260507092010 59 309 1.7 4.3 0.00 0.00 0.00 90 1015.5
20260507091506 59 314 1.7 3.5 0.00 0.00 0.00 90 1015.5
20260507091009 59 352 1.7 3.5 0.00 0.00 0.00 90 1015.8
20260507090508 59 287 0.9 3.5 0.00 0.00 0.00 90 1015.8
20260507090011 59 5 1.7 3.5 0.00 0.00 0.00 90 1015.6
20260507085505 59 323 0.0 5.2 0.00 0.00 0.00 90 1015.5
20260507085004 59 9 2.6 5.2 0.00 0.00 0.00 90 1015.0
20260507084514 59 33 1.7 3.5 0.00 0.00 0.00 90 1015.4
20260507084002 59 334 1.7 4.3 0.00 0.00 0.00 90 1015.4
20260507083506 59 32 0.9 7.0 0.00 0.00 0.00 90 1015.4
20260507083016 59 345 2.6 7.0 0.00 0.00 0.00 90 1015.0
20260507082508 59 13 4.3 7.0 0.00 0.00 0.00 89 1014.9
20260507082010 59 31 2.6 7.0 0.00 0.00 0.00 89 1015.2
20260507081523 59 360 1.7 7.0 0.00 0.00 0.00 89 1015.1
20260507081006 59 36 4.3 6.1 0.00 0.00 0.00 88 1014.9
20260507080015 59 67 2.6 7.8 0.00 0.00 0.00 88 1014.7
20260507075508 59 16 1.7 3.5 0.00 0.00 0.00 88 1015.3
20260507075004 59 12 0.9 4.3 0.00 0.00 0.00 88 1015.6
20260507074507 59 351 2.6 7.0 0.00 0.00 0.00 87 1015.4
20260507074007 59 352 2.6 7.0 0.00 0.00 0.00 87 1015.4
20260507073507 59 29 2.6 7.0 0.00 0.00 0.00 87 1015.8
20260507073009 59 24 2.6 7.0 0.00 0.00 0.00 87 1015.6
20260507072506 59 58 3.5 13.0 0.00 0.00 0.00 87 1015.4
20260507072008 59 9 3.5 13.0 0.00 0.00 0.00 87 1014.9
20260507071516 59 59 4.3 13.0 0.00 0.00 0.00 87 1014.9
20260507071008 59 32 5.2 9.6 0.00 0.00 0.00 86 1014.6
20260507070507 59 13 4.3 9.6 0.00 0.00 0.00 86 1014.9
20260507070022 59 5 2.6 9.6 0.00 0.00 0.00 86 1015.3
20260507065007 59 44 2.6 6.1 0.00 0.00 0.00 86 1015.6
20260507064523 59 9 2.6 6.1 0.00 0.00 0.00 86 1015.3
20260507064009 60 15 3.5 6.1 0.00 0.00 0.00 86 1015.4
20260507063505 60 21 2.6 10.4 0.00 0.00 0.00 86 1015.6
20260507063013 60 17 4.3 10.4 0.00 0.00 0.00 86 1015.8
20260507062506 60 48 3.5 8.7 0.00 0.00 0.00 86 1015.6
20260507062007 60 360 2.6 8.7 0.00 0.00 0.00 85 1015.3
20260507061515 60 10 4.3 10.4 0.00 0.00 0.00 85 1015.2
20260507061009 60 19 6.1 10.4 0.00 0.00 0.00 85 1015.2
20260507060507 60 19 4.3 9.6 0.00 0.00 0.00 85 1015.3
20260507060012 60 360 2.6 9.6 0.00 0.00 0.00 85 1015.3
20260507055510 60 30 2.6 9.6 0.00 0.00 0.00 85 1015.5
20260507055008 60 28 3.5 9.6 0.00 0.00 0.00 85 1015.2
20260507054007 60 28 5.2 9.6 0.00 0.00 0.00 84 1015.5
20260507053513 60 23 3.5 10.4 0.00 0.00 0.00 84 1015.6
20260507053024 61 352 4.3 11.3 0.00 0.00 0.00 84 1015.6
20260507052506 61 360 7.0 11.3 0.00 0.00 0.00 84 1015.3
20260507052010 61 336 3.5 9.6 0.00 0.00 0.00 84 1015.7
20260507051515 61 39 2.6 8.7 0.00 0.00 0.00 84 1015.6
20260507051008 61 61 4.3 8.7 0.00 0.00 0.00 84 1015.9
20260507050505 61 348 3.5 9.6 0.00 0.00 0.00 84 1015.9
20260507050016 61 333 4.3 9.6 0.00 0.00 0.00 84 1015.4
20260507045509 61 15 4.3 7.8 0.00 0.00 0.00 83 1015.7
20260507045006 61 9 4.3 9.6 0.00 0.00 0.00 83 1015.2
20260507044538 61 9 3.5 9.6 0.00 0.00 0.00 83 1015.3
20260507044010 61 32 3.5 9.6 0.00 0.00 0.00 83 1015.6
20260507043510 61 11 4.3 9.6 0.00 0.00 0.00 83 1015.9
20260507043004 61 17 4.3 9.6 0.00 0.00 0.00 83 1015.7
20260507042504 61 352 3.5 7.8 0.00 0.00 0.00 83 1016.0
20260507042006 61 9 2.6 7.0 0.00 0.00 0.00 83 1015.5
20260507041513 61 5 2.6 8.7 0.00 0.00 0.00 83 1016.0
20260507041005 61 5 4.3 9.6 0.00 0.00 0.00 83 1014.8
20260507040504 61 35 3.5 9.6 0.00 0.00 0.00 83 1015.3
20260507040011 61 46 3.5 8.7 0.00 0.00 0.00 83 1015.5
20260507035507 61 9 2.6 7.8 0.00 0.00 0.00 83 1015.3
20260507035014 61 27 4.3 7.8 0.00 0.00 0.00 83 1015.1
20260507034508 61 17 2.6 7.0 0.00 0.00 0.00 83 1015.5
20260507034007 61 32 3.5 7.8 0.00 0.00 0.00 82 1015.3
20260507033508 61 360 2.6 8.7 0.00 0.00 0.00 82 1015.0
20260507033006 61 38 4.3 8.7 0.00 0.00 0.00 82 1015.2
20260507032504 61 9 3.5 10.4 0.00 0.00 0.00 82 1015.0
20260507032005 61 17 4.3 10.4 0.00 0.00 0.00 82 1015.0
20260507031508 61 25 3.5 7.8 0.00 0.00 0.00 82 1015.4
20260507031006 61 84 3.5 7.8 0.00 0.00 0.00 82 1015.4
20260507030509 61 17 1.7 8.7 0.00 0.00 0.00 83 1015.3
20260507030016 61 325 3.5 8.7 0.00 0.00 0.00 83 1014.8
20260507025502 61 32 1.7 8.7 0.00 0.00 0.00 83 1014.6
20260507025007 61 24 3.5 8.7 0.00 0.00 0.00 83 1014.7
20260507024519 61 9 2.6 5.2 0.00 0.00 0.00 83 1014.6
20260507024006 61 11 2.6 6.1 0.00 0.00 0.00 83 1014.6
20260507023504 61 331 2.6 6.1 0.00 0.00 0.00 83 1014.9
20260507023012 61 347 1.7 8.7 0.00 0.00 0.00 83 1014.8
20260507022513 61 352 1.7 8.7 0.00 0.00 0.00 83 1014.5
20260507022003 61 30 2.6 7.8 0.00 0.00 0.00 82 1014.5
20260507021514 61 329 1.7 7.8 0.00 0.00 0.00 82 1014.4
20260507021005 61 22 1.7 6.1 0.00 0.00 0.00 83 1014.5
20260507020505 61 338 3.5 6.1 0.00 0.00 0.00 82 1014.1
20260507020010 61 350 1.7 7.8 0.00 0.00 0.00 83 1013.8
20260507015506 61 324 2.6 7.8 0.00 0.00 0.00 83 1013.7
20260507015008 61 330 3.5 7.0 0.00 0.00 0.00 83 1013.6
20260507014520 61 360 1.7 5.2 0.00 0.00 0.00 83 1013.8
20260507014006 61 349 2.6 7.0 0.00 0.00 0.00 83 1013.4
20260507013508 61 22 1.7 7.0 0.00 0.00 0.00 83 1013.3
20260507013019 61 323 2.6 6.1 0.00 0.00 0.00 83 1013.2
20260507012508 61 348 2.6 7.0 0.00 0.00 0.00 83 1013.0
20260507012008 61 339 2.6 7.8 0.00 0.00 0.00 83 1013.0
20260507011521 62 350 3.5 7.8 0.00 0.00 0.00 83 1013.0
20260507011012 62 348 2.6 7.8 0.00 0.00 0.00 82 1013.0
20260507010010 62 5 3.5 7.8 0.00 0.00 0.00 83 1012.9
20260507005503 62 17 2.6 8.7 0.00 0.00 0.00 83 1012.8
20260507005006 62 16 3.5 8.7 0.00 0.00 0.00 82 1012.8
20260507004515 62 333 2.6 8.7 0.00 0.00 0.00 82 1012.8
20260507004009 62 15 3.5 8.7 0.00 0.00 0.00 82 1012.8
20260507003507 62 302 2.6 7.8 0.00 0.00 0.00 82 1012.7
20260507003020 62 316 3.5 7.0 0.00 0.00 0.00 82 1012.4
20260507002509 62 323 3.5 7.0 0.00 0.00 0.00 82 1012.6
20260507002011 62 9 3.5 8.7 0.00 0.00 0.00 82 1012.6
20260507001520 62 25 3.5 8.7 0.00 0.00 0.00 82 1012.5
20260507001007 62 344 3.5 7.8 0.00 0.00 0.00 82 1012.4
20260507000508 62 17 3.5 7.8 0.00 0.00 0.00 82 1012.5
20260507000026 62 340 1.7 7.8 0.00 0.00 0.00 82 1012.4
20260506235506 62 339 2.6 8.7 0.00 0.00 0.00 82 1012.6
20260506235007 62 9 3.5 8.7 0.00 0.00 0.00 81 1012.6
20260506234514 62 19 4.3 8.7 0.00 0.00 0.00 81 1012.2
20260506234005 62 33 2.6 8.7 0.00 0.00 0.00 81 1012.5
20260506233506 62 9 1.7 8.7 0.00 0.00 0.00 82 1012.4
20260506233019 62 336 3.5 7.8 0.00 0.00 0.00 81 1012.3
20260506232507 62 333 3.5 9.6 0.00 0.00 0.00 81 1012.2
20260506232008 62 336 2.6 9.6 0.00 0.00 0.00 81 1012.4
20260506231522 62 323 4.3 11.3 0.00 0.00 0.00 81 1012.2
20260506231007 62 343 3.5 11.3 0.00 0.00 0.00 81 1012.1
20260506230505 62 34 3.5 7.8 0.00 0.00 0.00 80 1012.0
20260506230019 63 331 3.5 7.8 0.00 0.00 0.00 80 1012.1
20260506225507 62 330 3.5 9.6 0.00 0.00 0.00 80 1012.2
20260506225007 63 24 2.6 9.6 0.00 0.00 0.00 80 1012.3
20260506224007 63 18 6.1 11.3 0.00 0.00 0.00 78 1012.0
20260506223506 63 340 4.3 9.6 0.00 0.00 0.00 79 1011.9
20260506223012 63 10 4.3 9.6 0.00 0.00 0.00 78 1011.9
20260506222509 64 21 4.3 8.7 0.00 0.00 0.00 79 1012.0
20260506222009 64 352 3.5 10.4 0.00 0.00 0.00 79 1012.0
20260506221517 64 10 5.2 10.4 0.00 0.00 0.00 79 1012.0
20260506221007 64 350 4.3 9.6 0.00 0.00 0.00 79 1012.0
20260506220511 64 323 4.3 9.6 0.00 0.00 0.00 78 1011.9
20260506220026 64 11 4.3 10.4 0.00 0.00 0.00 78 1011.9
20260506215506 64 349 5.2 11.3 0.00 0.00 0.00 77 1011.9
20260506215009 64 333 3.5 11.3 0.00 0.00 0.00 77 1012.0
20260506214524 65 306 5.2 11.3 0.00 0.00 0.00 76 1012.1
20260506214015 65 19 6.1 10.4 0.00 0.00 0.00 76 1012.2
20260506212507 65 294 4.3 11.3 0.00 0.00 0.00 76 1012.1
20260506212006 65 9 5.2 10.4 0.00 0.00 0.00 76 1012.1
20260506211515 65 360 5.2 9.6 0.00 0.00 0.00 75 1012.2
20260506211006 66 338 5.2 13.0 0.00 0.00 0.00 75 1012.1
20260506210506 65 284 4.3 13.0 0.00 0.00 0.00 76 1012.1
20260506210021 65 332 5.2 10.4 0.00 0.00 0.00 76 1012.3
20260506205511 66 18 4.3 10.4 0.00 0.00 0.00 75 1012.4
20260506205014 66 352 4.3 9.6 0.00 0.00 0.00 75 1012.3
20260506204525 66 306 5.2 12.2 0.00 0.00 0.00 75 1012.2
20260506204008 66 303 6.1 12.2 0.00 0.00 0.00 75 1012.0
20260506203509 67 344 4.3 9.6 0.00 0.00 0.00 76 1011.9
20260506203031 67 24 5.2 11.3 0.00 0.00 0.00 75 1011.8
20260506201516 67 348 4.3 11.3 0.00 0.00 0.00 77 1012.0
20260506201008 67 336 6.1 11.3 0.00 0.00 0.00 76 1012.0
20260506200511 67 322 7.0 11.3 0.00 0.00 0.00 77 1012.0
20260506200018 68 322 6.1 9.6 0.00 0.00 0.00 1012.1
20260506195509 68 327 5.2 13.0 0.00 0.00 0.00 1012.1
20260506195010 69 23 5.2 13.0 0.00 0.00 0.00 77 1012.0
20260506194522 70 341 5.2 10.4 0.00 0.00 0.00 77 1011.8
20260506194009 70 352 6.1 9.6 0.00 0.00 0.00 76 1011.9
20260506193512 71 28 4.3 10.4 0.00 0.00 0.00 76 1011.9
20260506193006 71 305 4.3 11.3 0.00 0.00 0.00 77 1011.8
20260506192503 72 335 5.2 11.3 0.00 0.00 0.00 76 1011.8
20260506192006 72 338 3.5 8.7 0.00 0.00 0.00 76 1011.8
20260506191514 72 294 3.5 9.6 0.00 0.00 0.00 75 1011.8
20260506191003 73 345 3.5 9.6 0.00 0.00 0.00 77 1011.7
20260506190506 72 352 3.5 10.4 0.00 0.00 0.00 76 1012.0
20260506190014 73 333 3.5 10.4 0.00 0.00 0.00 77 1011.9
20260506185506 74 333 4.3 7.8 0.00 0.00 0.00 74 1011.9
20260506185003 74 342 1.7 7.0 0.00 0.00 0.00 77 1011.8
20260506184503 73 9 2.6 7.0 0.00 0.00 0.00 76 1011.7
20260506184005 73 325 2.6 7.0 0.00 0.00 0.00 76 1011.6
20260506183503 73 325 1.7 7.0 0.00 0.00 0.00 79 1011.4
20260506183010 72 303 0.9 7.0 0.00 0.00 0.00 77 1011.2
20260506182502 71 18 0.9 4.3 0.00 0.00 0.00 79 1011.0
20260506182008 71 26 0.9 4.3 0.00 0.00 0.00 80 1011.1
20260506181508 70 24 2.6 6.1 0.00 0.00 0.00 81 1011.1
20260506181008 69 5 2.6 6.1 0.00 0.00 0.00 79 1011.4
20260506180506 68 344 1.7 7.0 0.00 0.00 0.00 80 1011.4
20260506180006 68 304 1.7 6.1 0.00 0.00 0.00 81 1011.2
20260506175507 68 360 1.7 7.0 0.00 0.00 0.00 81 1011.3
20260506175006 67 41 2.6 8.7 0.00 0.00 0.00 82 1011.3
20260506174520 66 302 2.6 8.7 0.00 0.00 0.00 83 1011.2
20260506174002 65 31 4.3 10.4 0.00 0.00 0.00 84 1011.2
20260506173506 65 346 4.3 10.4 0.00 0.00 0.00 85 1011.4
20260506173008 65 93 3.5 7.8 0.00 0.00 0.00 86 1011.5
20260506172504 63 51 2.6 7.8 0.00 0.00 0.00 88 1011.7
20260506172003 62 31 4.3 10.4 0.00 0.00 0.00 87 1011.8
20260506171512 62 37 6.1 11.3 0.00 0.00 0.00 89 1011.9
20260506171006 62 32 5.2 11.3 0.00 0.00 0.00 87 1012.2
20260506170505 62 18 5.2 9.6 0.00 0.00 0.00 88 1012.5
20260506170016 62 13 4.3 13.9 0.00 0.00 0.00 90 1012.2
20260506165506 61 34 7.8 13.9 0.00 0.00 0.00 90 1012.1
20260506165003 60 10 7.0 11.3 0.00 0.00 0.00 90 1012.4
20260506164515 60 352 4.3 9.6 0.00 0.00 0.00 91 1012.9
20260506164009 60 40 4.3 13.9 0.00 0.00 0.00 91 1013.3
20260506163514 60 350 5.2 13.9 0.00 0.00 0.00 91 1013.8
20260506162502 60 26 7.0 13.0 0.00 0.00 0.00 91 1013.9
20260506162008 60 348 4.3 10.4 0.00 0.00 0.00 91 1014.0
20260506161504 61 319 4.3 10.4 0.00 0.00 0.00 91 1014.0
20260506161003 61 337 3.5 13.0 0.00 0.00 0.00 91 1014.1
20260506160506 61 340 5.2 13.9 0.00 0.00 0.00 90 1013.9
20260506160016 62 20 6.1 13.9 0.00 0.00 0.00 90 1013.7
20260506155505 62 352 3.5 13.9 0.00 0.00 0.00 90 1013.6
20260506155007 63 347 7.0 13.9 0.00 0.00 0.00 90 1013.5
20260506154520 63 5 3.5 11.3 0.00 0.00 0.00 90 1013.3
20260506154006 63 23 2.6 12.2 0.00 0.00 0.00 90 1012.8
20260506153505 64 344 6.1 12.2 0.00 0.00 0.00 90 1012.4
20260506153018 64 345 5.2 10.4 0.00 0.00 0.00 89 1012.3
20260506152509 65 307 3.5 13.9 0.00 0.00 0.00 89 1012.1
20260506151506 67 26 7.8 13.9 0.00 0.00 0.00 86 1011.8
20260506151007 68 306 4.3 11.3 0.00 0.00 0.00 84 1011.8
20260506150504 70 5 6.1 11.3 0.00 0.00 0.00 82 1011.5
20260506150012 74 344 3.5 9.6 0.00 0.00 0.00 80 1011.3
20260506145512 77 150 0.9 4.3 0.00 0.00 0.00 86 1011.1
20260506145006 77 203 1.7 4.3 0.00 0.00 0.00 86 1011.0
20260506144512 77 150 1.7 4.3 0.00 0.00 0.00 86 1010.8
20260506144008 77 176 3.5 4.3 0.00 0.00 0.00 86 1010.6
20260506143509 77 154 0.9 6.1 0.00 0.00 0.00 87 1010.7
20260506143007 77 165 2.6 6.1 0.00 0.00 0.00 86 1010.7
20260506142508 77 188 1.7 5.2 0.00 0.00 0.00 87 1010.6
20260506142009 77 167 1.7 5.2 0.00 0.00 0.00 87 1010.8
20260506141524 77 167 1.7 5.2 0.00 0.00 0.00 87 1010.8
20260506140504 77 173 2.6 5.2 0.00 0.00 0.00 88 1010.3
20260506140008 76 205 2.6 4.3 0.00 0.00 0.00 88 1010.2
20260506135504 76 151 2.6 4.3 0.00 0.00 0.00 88 1010.2
20260506135006 76 134 2.6 5.2 0.00 0.00 0.00 88 1010.2
20260506134514 76 141 2.6 5.2 0.00 0.00 0.00 88 1010.2
20260506134009 76 131 0.9 4.3 0.00 0.00 0.00 89 1010.1
20260506133506 76 126 2.6 4.3 0.00 0.00 0.00 89 1010.0
20260506133029 76 149 1.7 3.5 0.00 0.00 0.00 90 1010.1
20260506132509 75 167 1.7 3.5 0.00 0.00 0.00 90 1010.1
20260506132008 75 175 0.9 2.6 0.00 0.00 0.00 91 1010.1
20260506131517 75 173 0.9 3.5 0.00 0.00 0.00 91 1010.0
20260506131007 75 167 0.9 3.5 0.00 0.00 0.00 91 1009.9
20260506130508 75 162 1.7 4.3 0.00 0.00 0.00 92 1009.9
20260506125505 74 173 1.7 3.5 0.00 0.00 0.00 1009.7
20260506125003 74 146 1.7 3.5 0.00 0.00 0.00 1009.8
20260506124007 74 145 0.9 2.6 0.00 0.00 0.00 1009.8
20260506123507 74 146 0.9 1.7 0.00 0.00 0.00 1009.8
20260506123016 74 135 0.0 1.7 0.00 0.00 0.00 92 1009.8
20260506122508 74 131 0.0 1.7 0.00 0.00 0.00 92 1009.7
20260506122006 74 136 0.9 1.7 0.00 0.00 0.00 92 1009.6
20260506121520 74 142 0.9 1.7 0.00 0.00 0.00 92 1009.6
20260506121014 74 134 0.0 2.6 0.00 0.00 0.00 92 1009.6
20260506120508 74 128 0.9 2.6 0.00 0.00 0.00 92 1009.7
20260506120033 74 142 0.9 2.6 0.00 0.00 0.00 92 1009.6
20260506115509 74 136 0.9 1.7 0.00 0.00 0.00 92 1009.6
20260506114003 74 157 0.9 2.6 0.00 0.00 0.00 92 1009.5
20260506113508 74 143 0.9 2.6 0.00 0.00 0.00 92 1009.5
20260506112507 74 174 0.0 1.7 0.00 0.00 0.00 91 1009.6
20260506112006 74 186 0.9 3.5 0.00 0.00 0.00 91 1009.5
20260506111510 74 184 0.9 4.3 0.00 0.00 0.00 91 1009.4
20260506111010 74 197 1.7 4.3 0.00 0.00 0.00 91 1009.4
20260506110513 74 203 1.7 4.3 0.00 0.00 0.00 91 1009.4
20260506110020 74 169 1.7 4.3 0.00 0.00 0.00 91 1009.3
20260506105508 74 182 0.9 4.3 0.00 0.00 0.00 91 1009.3
20260506105008 74 196 1.7 4.3 0.00 0.00 0.00 91 1009.2
20260506104525 74 157 1.7 3.5 0.00 0.00 0.00 91 1009.0
20260506104007 74 175 0.9 3.5 0.00 0.00 0.00 91 1009.1
20260506103510 74 167 1.7 5.2 0.00 0.00 0.00 91 1009.1
20260506103005 74 186 1.7 5.2 0.00 0.00 0.00 91 1008.9
20260506102507 75 178 1.7 4.3 0.00 0.00 0.00 91 1008.9
20260506102004 75 151 2.6 5.2 0.00 0.00 0.00 90 1008.9
20260506101513 75 166 1.7 5.2 0.00 0.00 0.00 90 1008.8
20260506101005 75 143 1.7 5.2 0.00 0.00 0.00 90 1008.7
20260506100506 75 212 2.6 5.2 0.00 0.00 0.00 90 1008.7
20260506100016 75 191 2.6 5.2 0.00 0.00 0.00 90 1008.5
20260506095507 75 178 2.6 4.3 0.00 0.00 0.00 90 1008.5
20260506095006 75 197 2.6 6.1 0.00 0.00 0.00 90 1008.5
20260506094506 75 182 3.5 6.1 0.00 0.00 0.00 90 1008.5
20260506094004 75 186 3.5 7.0 0.00 0.00 0.00 90 1008.5